www.pogodaiklimat.ru

Погода и климат >> Архив погоды >> Оман >> Джоба


ПОГОДА на Джобе

  • Прогноз погоды на Джобе
  • Монитор погоды на Джобе

АРХИВ ПОГОДЫ на Джобе

Время (UTC), дата Ветер
(напр.,м/с)
 
Видим.   Явления Облачность Т
(С)
Тd
(С)
f
(%)
Тe
(С)
Тes
(С)
Комфортность P
(гПа)
Po
(гПа)
Тmin
(С)
Tmax
(С)
R
(мм)
R24
(мм)
S
(см)
12 10.08 ЮВ 6 н/о н/о +36.6 +20.1 38 +42 +42 опасность
перегрева
993.3 989.5
15 10.08 ЮВ 10 н/о н/о +27.7 +22.3 72 +36 +36 очень
душно
994.7 990.8
18 10.08 ЮВ 6 н/о н/о +25.5 +22.5 83 +33 +33 очень
душно
997.0 993.1 +37.5
21 10.08 ЮВ 5 н/о н/о +25.1 +22.9 88 +33 +33 очень
душно
995.9 991.9
00 11.08 ЮВ 4 н/о н/о +25.1 +23.3 90 +34 +34 очень
душно
995.1 991.1
03 11.08 ЮВ 5 н/о н/о +25.0 +23.5 91 +34 +34 очень
душно
995.8 991.9
06 11.08 ЮВ 4 н/о н/о +28.5 +23.4 74 +39 +39 очень
душно
996.7 992.8 +24.7
09 11.08 ЮВ 3 н/о н/о +35.3 +22.1 46 +44 +44 опасность
перегрева
994.3 990.5
12 11.08 ЮВ 7 н/о н/о +35.0 +22.1 47 +44 +44 опасность
перегрева
993.2 989.4
15 11.08 ЮВ 9 н/о н/о +29.0 +22.5 68 +38 +38 очень
душно
994.2 990.3
18 11.08 ЮВ 7 н/о н/о +26.8 +22.9 79 +36 +36 очень
душно
996.0 992.1 +36.7
21 11.08 ЮВ 5 н/о н/о +26.1 +23.4 85 +35 +35 очень
душно
995.4 991.5
00 12.08 Ю 5 н/о н/о +25.9 +23.4 86 +35 +35 очень
душно
994.9 991.0
03 12.08 ЮВ 7 н/о н/о +24.9 +22.4 86 +33 +33 очень
душно
997.2 993.3
06 12.08 ЮВ 4 н/о н/о +29.6 +22.8 67 +39 +39 очень
душно
998.1 994.2 +24.8
09 12.08 В 3 н/о н/о +35.8 +21.7 44 +44 +44 опасность
перегрева
996.5 992.6
12 12.08 В 5 н/о н/о +35.0 +21.4 45 +43 +43 опасность
перегрева
995.2 991.3
15 12.08 ЮВ 7 н/о н/о +29.5 +21.7 63 +38 +38 очень
душно
996.1 992.2
18 12.08 В 5 н/о н/о +27.0 +22.0 74 +35 +35 очень
душно
998.7 994.8 +37.8
21 12.08 В 7 н/о н/о +24.7 +22.1 85 +32 +32 очень
душно
997.9 994.0
00 13.08 ЮВ 6 н/о н/о +23.5 +22.2 92 +30 +30 очень
душно
998.6 994.6
03 13.08 В 7 н/о н/о +23.6 +22.5 94 +31 +31 очень
душно
1000.4 996.4
06 13.08 В 8 н/о н/о +27.5 +23.0 76 +37 +37 очень
душно
1001.5 997.5 +23.4
09 13.08 ЮВ 7 н/о н/о +27.5 +22.6 75 +36 +36 очень
душно
999.7 995.8
12 13.08 ЮВ 7 н/о н/о +29.0 +23.0 70 +39 +39 очень
душно
998.4 994.5
15 13.08 ЮВ 6 н/о н/о +26.4 +22.5 79 +35 +35 очень
душно
999.6 995.6
18 13.08 ЮВ 5 н/о н/о +24.1 +22.3 90 +31 +31 очень
душно
1001.1 997.1 +29.4
21 13.08 ЮВ 4 н/о н/о +23.3 +22.3 94 +32 +32 очень
душно
1000.2 996.2
00 14.08 В 4 н/о н/о +22.9 +22.3 96 +31 +31 очень
душно
999.9 995.9
03 14.08 В 4 н/о н/о +23.3 +22.5 95 +32 +32 очень
душно
1001.4 997.4
06 14.08 ЮВ 4 н/о н/о +28.5 +22.9 72 +38 +38 очень
душно
1002.0 998.0 +22.8
09 14.08 В 4 н/о н/о +36.5 +21.3 41 +44 +44 опасность
перегрева
999.6 995.8
12 14.08 В 7 н/о н/о +37.4 +21.3 39 +44 +44 опасность
перегрева
998.2 994.4
15 14.08 ЮВ 7 н/о н/о +31.2 +21.6 57 +40 +40 очень
душно
999.9 996.0
18 14.08 ЮВ 5 н/о н/о +27.1 +22.1 74 +35 +35 очень
душно
1001.8 997.9 +38.8
21 14.08 В 4 н/о н/о +25.5 +22.1 81 +33 +33 очень
душно
1000.9 997.0
00 15.08 В 4 н/о н/о +24.6 +21.9 85 +32 +32 очень
душно
1001.2 997.3
03 15.08 В 2 н/о н/о +24.8 +22.6 88 +33 +33 очень
душно
1002.4 998.4
06 15.08 В 5 н/о н/о +31.3 +23.0 61 +41 +41 опасность
перегрева
1002.8 998.9 +24.3
09 15.08 В 6 н/о н/о +36.2 +22.3 45 +45 +45 опасность
перегрева
1000.9 997.1
12 15.08 В 6 н/о н/о +36.3 +21.4 42 +44 +44 опасность
перегрева
999.3 995.4
15 15.08 В 6 н/о н/о +31.4 +22.0 57 +40 +40 очень
душно
1000.3 996.5
18 15.08 ЮВ 4 н/о н/о +27.2 +22.2 74 +35 +35 очень
душно
1002.3 998.4 +36.6
21 15.08 В 2 н/о н/о +25.9 +22.2 80 +34 +34 очень
душно
1001.6 997.6
00 16.08 СВ 4 н/о н/о +25.3 +23.3 89 +34 +34 очень
душно
1001.4 997.4
03 16.08 В 4 н/о н/о +25.3 +23.6 90 +34 +34 очень
душно
1002.1 998.1
06 16.08 В 3 н/о н/о +31.2 +22.9 61 +41 +41 опасность
перегрева
1002.6 998.7 +24.9
09 16.08 В 5 н/о н/о +36.0 +22.6 46 +45 +45 опасность
перегрева
1000.7 996.9
12 16.08 В 5 н/о н/о +35.7 +21.6 44 +44 +44 опасность
перегрева
999.0 995.1
15 16.08 ЮВ 8 н/о н/о +30.5 +22.0 61 +39 +39 очень
душно
999.0 995.1
18 16.08 ЮВ 5 н/о н/о +28.3 +22.4 70 +37 +37 очень
душно
1000.2 996.3 +36.6
21 16.08 В 3 н/о н/о +26.5 +22.3 78 +35 +35 очень
душно
999.5 995.6
00 17.08 В 3 н/о н/о +25.2 +22.3 84 +33 +33 очень
душно
999.3 995.3
03 17.08 СВ 2 н/о н/о +25.4 +22.4 83 +33 +33 очень
душно
1000.4 996.4
06 17.08 В 3 н/о н/о +32.8 +22.3 54 +42 +42 опасность
перегрева
1001.1 997.3 +24.6
09 17.08 ЮВ 3 н/о н/о +37.1 +20.9 39 +44 +44 опасность
перегрева
999.3 995.5

 

Местоположение метеостанции Джоба (Оман): широта 20.85 долгота 58.25 высота над уровнем моря 46 м.

В архиве по умолчанию представлена погода на Джобе за последнюю неделю. Архивные данные за месяц целиком и за предыдущие месяцы, начиная с января 2011 года, Вы можете получить, выбрав интересующий диапазон дат из раскрывающегося списка и нажав кнопку "Ввод!".


*Определитесь, кто Вы:
робот инопланетянин человек

Внимание! Время в таблицах - всемирное. Для получения местного времени необходимо прибавить поправку, которая равна 4 ч.

Смотрите также архив погоды в соседних городах и на ближайших метеорологических станциях:

Погода на Масире (Оман) (71 км)
Погода в Умзамайме (Оман) (118 км)
Погода в Карн Аль Алам (Оман) (137 км)
Погода в Эль-Дакуме (Оман) (151 км)
Погода в Ялони (Оман) (157 км)
Погода в Аль Мудайби (Оман) (185 км)
Погода в Адаме (Оман) (186 км)
Погода в Бидии (Оман) (190 км)
Погода в Ибре (Оман) (211 км)
Погода в Суре (Оман) (225 км)

Пояснения к столбцам:

Ветер - указаны скорость ветра в м/с - средняя за 10 мин, порывы в срок и между сроками (в фигурных скобках) и направление, откуда дует ветер: С - северный, СВ - северо-восточный, В - восточный, ЮВ - юго-восточный, Ю - южный, ЮЗ - юго-западный, З - западный, СЗ - северо-западный.
Видимость - горизонтальная дальность видимости в метрах или километрах. При видимости от 1 до 10 км при отсутствии осадков обычно наблюдается дымка, при ухудшении видимости до 1 км и менее - туман. В сухую погоду видимость может ухудшаться дымом, пылью или мглою.
Явления - указаны атмосферные явления, наблюдавшиеся в срок или в последний час перед сроком; фигурными скобками обозначены явления, наблюдавшиеся между сроками (за 1-3 часа до срока); квадратными скобками обозначены град или гололедные отложения с указанием их диаметра в мм.
Облачность - указаны через наклонную черту общая и нижняя облачность в баллах и высота нижней границы облаков в метрах; квадратными скобками обозначены формы облаков: Ci - перистые, Cs - перисто-слоистые, Cc - перисто-кучевые, Ac - высококучевые, As - высокослоистые, Sc - слоисто-кучевые, Ns - слоисто-дождевые, Cu - кучевые, Cb - кучево-дождевые. Подробнее классификацию облаков см. в Атласе облаков (PDF).
T - Температура воздуха - температура, измеренная на высоте 2 м над землей.
Td - Температура точки росы - температура, при понижении до которой содержащийся в воздухе водяной пар достигнет насыщения.
f - Относительная влажность воздуха - влажноcть воздуха, измеренная на высоте 2 м над землей.
Te - Эффективная температура - температура, которую ощущает одетый по сезону человек в тени. Характеристика душности погоды. При расчете учитывается влияние влажности воздуха и скорости ветра на теплоощущения человека.
Tes - Эффективная температура на солнце - температура, которую ощущает человек, с поправкой на солнечный нагрев. Характеристика знойности погоды. Зависит от высоты солнца над горизонтом, облачности и скорости ветра. Ночью, в пасмурную погоду, а также при ветре 12 м/с и более поправка равна нулю.
P - Атмосферное давление - приведенное к уровню моря атмосферное давление.
Po - Атмосферное давление - измеренное на уровне метеостанции атмосферное давление.
Tmin - Минимальная температура - минимум температуры воздуха на высоте 2 м над землей.
Tmax - Максимальная температура - максимум температуры воздуха на высоте 2 м над землей.
R - Количество осадков - Количество выпавших осадков за период времени, мм. При наведении курсора мыши на число - период времени, за который выпало указанное количество осадков.
R24 - Количество осадков - Количество выпавших осадков за 24 часа, мм.
S - Снежный покров - Высота снежного покрова, см. При наведении курсора мыши на число - состояние снежного покрова и степень покрытия местности в баллах.